Year,Month,Day,Hour,Minute,Value (Times are PST for temperature in C)
2009,02,22,12,24,7.30
2009,02,22,12,25,7.30
2009,02,22,12,26,7.30
2009,02,22,12,27,7.30
2009,02,22,12,28,7.40
2009,02,22,12,29,7.40
2009,02,22,12,30,7.50
2009,02,22,12,31,7.50
2009,02,22,12,32,7.50
2009,02,22,12,33,7.60
2009,02,22,12,34,7.60
2009,02,22,12,35,7.60
2009,02,22,12,36,7.70
2009,02,22,12,37,7.70
2009,02,22,12,38,7.70
2009,02,22,12,39,7.70
2009,02,22,12,40,7.70
2009,02,22,12,41,7.70
2009,02,22,12,42,7.80
2009,02,22,12,43,7.80
2009,02,22,12,44,7.80
2009,02,22,12,45,7.90
2009,02,22,12,46,7.90
2009,02,22,12,47,7.90
2009,02,22,12,48,8.00
2009,02,22,12,49,8.00
2009,02,22,12,50,8.00
2009,02,22,12,51,8.00
2009,02,22,12,52,8.10
2009,02,22,12,53,8.10
2009,02,22,12,54,8.10
2009,02,22,12,55,8.10
2009,02,22,12,56,8.20
2009,02,22,12,57,8.20
2009,02,22,12,58,8.20
2009,02,22,12,59,8.20
2009,02,22,13,00,8.20
2009,02,22,13,01,8.20
2009,02,22,13,02,8.20
2009,02,22,13,03,8.20
2009,02,22,13,04,8.20
2009,02,22,13,05,8.20
2009,02,22,13,06,8.20
2009,02,22,13,07,8.20
2009,02,22,13,08,8.20
2009,02,22,13,09,8.20
2009,02,22,13,10,8.20
2009,02,22,13,11,8.30
2009,02,22,13,12,8.30
2009,02,22,13,13,8.30
2009,02,22,13,14,8.30
2009,02,22,13,15,8.30
2009,02,22,13,16,8.30
2009,02,22,13,17,8.40
2009,02,22,13,18,8.40
2009,02,22,13,19,8.50
2009,02,22,13,20,8.50
2009,02,22,13,21,8.50
2009,02,22,13,22,8.60
2009,02,22,13,23,8.60
2009,02,22,13,24,8.60
2009,02,22,13,25,8.60
2009,02,22,13,26,8.60
2009,02,22,13,27,8.60
2009,02,22,13,28,8.60
2009,02,22,13,29,8.70
2009,02,22,13,30,8.70
2009,02,22,13,31,8.70
2009,02,22,13,32,8.70
2009,02,22,13,33,8.80
2009,02,22,13,34,8.80
2009,02,22,13,35,8.80
2009,02,22,13,36,8.80
2009,02,22,13,37,8.80
2009,02,22,13,38,8.80
2009,02,22,13,39,8.80
2009,02,22,13,40,8.80
2009,02,22,13,41,8.80
2009,02,22,13,42,8.80
2009,02,22,13,43,8.90
2009,02,22,13,44,8.90
2009,02,22,13,45,8.90
2009,02,22,13,46,8.90
2009,02,22,13,47,8.90
2009,02,22,13,48,8.90
2009,02,22,13,49,8.90
2009,02,22,13,50,9.00
2009,02,22,13,51,9.00
2009,02,22,13,52,9.00
2009,02,22,13,53,9.00
2009,02,22,13,54,9.10
2009,02,22,13,55,9.10
2009,02,22,13,56,9.10
2009,02,22,13,57,9.10
2009,02,22,13,58,9.10
2009,02,22,13,59,9.20
2009,02,22,14,00,9.20
2009,02,22,14,01,9.20
2009,02,22,14,02,9.20
2009,02,22,14,03,9.20
2009,02,22,14,04,9.20
2009,02,22,14,05,9.20
2009,02,22,14,06,9.20
2009,02,22,14,07,9.20
2009,02,22,14,08,9.20
2009,02,22,14,09,9.20
2009,02,22,14,10,9.20
2009,02,22,14,11,9.20
2009,02,22,14,12,9.20
2009,02,22,14,13,9.20
2009,02,22,14,14,9.20
2009,02,22,14,15,9.30
2009,02,22,14,16,9.30
2009,02,22,14,17,9.30
2009,02,22,14,18,9.30
2009,02,22,14,19,9.30
2009,02,22,14,20,9.40
2009,02,22,14,21,9.40
2009,02,22,14,22,9.40
2009,02,22,14,23,9.50
2009,02,22,14,24,9.50
2009,02,22,14,25,9.60
2009,02,22,14,26,9.70
2009,02,22,14,27,9.80
2009,02,22,14,28,9.80
2009,02,22,14,29,9.90
2009,02,22,14,30,10.00
2009,02,22,14,31,10.10
2009,02,22,14,32,10.10
2009,02,22,14,33,10.20
2009,02,22,14,34,10.20
2009,02,22,14,35,10.20
2009,02,22,14,36,10.10
2009,02,22,14,37,10.10
2009,02,22,14,38,10.10
2009,02,22,14,39,10.10
2009,02,22,14,40,10.10
2009,02,22,14,41,10.10
2009,02,22,14,42,10.10
2009,02,22,14,43,10.10
2009,02,22,14,44,10.10
2009,02,22,14,45,10.10
2009,02,22,14,46,10.10
2009,02,22,14,47,10.10
2009,02,22,14,48,10.10
2009,02,22,14,49,10.10
2009,02,22,14,50,10.10
2009,02,22,14,51,10.10
2009,02,22,14,52,10.10
2009,02,22,14,53,10.10
2009,02,22,14,54,10.10
2009,02,22,14,55,10.00
2009,02,22,14,56,10.00
2009,02,22,14,57,10.00
2009,02,22,14,58,10.00
2009,02,22,14,59,9.90
2009,02,22,15,00,9.90
2009,02,22,15,01,9.90
2009,02,22,15,02,9.90
2009,02,22,15,03,9.90
2009,02,22,15,04,9.90
2009,02,22,15,05,9.90
2009,02,22,15,06,9.90
2009,02,22,15,07,10.00
2009,02,22,15,08,10.00
2009,02,22,15,09,10.00
2009,02,22,15,10,10.10
2009,02,22,15,11,10.10
2009,02,22,15,12,10.10
2009,02,22,15,13,10.10
2009,02,22,15,14,10.10
2009,02,22,15,15,10.10
2009,02,22,15,16,10.10
2009,02,22,15,17,10.10
2009,02,22,15,18,10.10
2009,02,22,15,19,10.20
2009,02,22,15,20,10.20
2009,02,22,15,21,10.20
2009,02,22,15,22,10.20
2009,02,22,15,23,10.20
2009,02,22,15,24,10.30
2009,02,22,15,25,10.30
2009,02,22,15,26,10.30
2009,02,22,15,27,10.30
2009,02,22,15,28,10.30
2009,02,22,15,29,10.30
2009,02,22,15,30,10.30
2009,02,22,15,31,10.30
2009,02,22,15,32,10.30
2009,02,22,15,33,10.30
2009,02,22,15,34,10.30
2009,02,22,15,35,10.30
2009,02,22,15,36,10.30
2009,02,22,15,37,10.30
2009,02,22,15,38,10.30
2009,02,22,15,39,10.30
2009,02,22,15,40,10.30
2009,02,22,15,41,10.30
2009,02,22,15,42,10.30
2009,02,22,15,43,10.20
2009,02,22,15,44,10.20
2009,02,22,15,45,10.20
2009,02,22,15,46,10.20
2009,02,22,15,47,10.20
2009,02,22,15,48,10.20
2009,02,22,15,49,10.20
2009,02,22,15,50,10.20
2009,02,22,15,51,10.20
2009,02,22,15,52,10.20
2009,02,22,15,53,10.20
2009,02,22,15,54,10.10
2009,02,22,15,55,10.10
2009,02,22,15,56,10.10
2009,02,22,15,57,10.10
2009,02,22,15,58,10.10
2009,02,22,15,59,10.10
2009,02,22,16,00,10.10
2009,02,22,16,01,10.10
2009,02,22,16,02,10.10
2009,02,22,16,03,10.10
2009,02,22,16,04,10.10
2009,02,22,16,05,10.10
2009,02,22,16,06,10.10
2009,02,22,16,07,10.10
2009,02,22,16,08,10.10
2009,02,22,16,09,10.10
2009,02,22,16,10,10.10
2009,02,22,16,11,10.10
2009,02,22,16,12,10.10
2009,02,22,16,13,10.10
2009,02,22,16,14,10.10
2009,02,22,16,15,10.10
2009,02,22,16,16,10.10
2009,02,22,16,17,10.10
2009,02,22,16,18,10.10
2009,02,22,16,19,10.20
2009,02,22,16,20,10.20
2009,02,22,16,21,10.20
2009,02,22,16,22,10.20
2009,02,22,16,23,10.20
2009,02,22,16,24,10.20
2009,02,22,16,25,10.20
2009,02,22,16,26,10.20
2009,02,22,16,27,10.20
2009,02,22,16,28,10.20
2009,02,22,16,29,10.20
2009,02,22,16,30,10.20
2009,02,22,16,31,10.20
2009,02,22,16,32,10.20
2009,02,22,16,33,10.20
2009,02,22,16,34,10.20
2009,02,22,16,35,10.20
2009,02,22,16,36,10.20
2009,02,22,16,37,10.20
2009,02,22,16,38,10.20
2009,02,22,16,39,10.20
2009,02,22,16,40,10.20
2009,02,22,16,41,10.20
2009,02,22,16,42,10.20
2009,02,22,16,43,10.20
2009,02,22,16,44,10.20
2009,02,22,16,45,10.20
2009,02,22,16,46,10.10
2009,02,22,16,47,10.10
2009,02,22,16,48,10.10
2009,02,22,16,49,10.10
2009,02,22,16,50,10.10
2009,02,22,16,51,10.10
2009,02,22,16,52,10.00
2009,02,22,16,53,10.00
2009,02,22,16,54,10.00
2009,02,22,16,55,9.90
2009,02,22,16,56,9.90
2009,02,22,16,57,9.90
2009,02,22,16,58,9.90
2009,02,22,16,59,9.90
2009,02,22,17,00,9.90
2009,02,22,17,01,9.90
2009,02,22,17,02,9.80
2009,02,22,17,03,9.80
2009,02,22,17,04,9.80
2009,02,22,17,05,9.80
2009,02,22,17,06,9.80
2009,02,22,17,07,9.80
2009,02,22,17,08,9.80
2009,02,22,17,09,9.80
2009,02,22,17,10,9.80
2009,02,22,17,11,9.80
2009,02,22,17,12,9.80
2009,02,22,17,13,9.80
2009,02,22,17,14,9.80
2009,02,22,17,15,9.80
2009,02,22,17,16,9.80
2009,02,22,17,17,9.80
